| time (UTC) | temp F | wind direction | speed MPH | gust MPH | rain 1hr in | rain 24hr in | rain mn in | humidity % | barometer mb |
| 20260506201547 | 70 | 229 | 2.0 | 9.0 | 0.00 | 0.05 | 0.05 | 77 | 1006.5 |
| 20260506200049 | 68 | 230 | 3.0 | 14.0 | 0.00 | 0.05 | 0.05 | 81 | 1006.6 |
| 20260506194542 | 67 | 190 | 2.0 | 11.0 | 0.00 | 0.05 | 0.05 | 82 | 1006.9 |
| 20260506193045 | 66 | 184 | 2.0 | 8.0 | 0.00 | 0.05 | 0.05 | 82 | 1007.2 |
| 20260506191552 | 66 | 217 | 1.0 | 11.0 | 0.00 | 0.05 | 0.05 | 82 | 1007.4 |
| 20260506190050 | 65 | 157 | 3.0 | 10.0 | 0.00 | 0.05 | 0.05 | 83 | 1007.5 |
| 20260506184559 | 65 | 315 | 2.0 | 9.0 | 0.00 | 0.05 | 0.05 | 84 | 1007.4 |
| 20260506183057 | 64 | 173 | 2.0 | 9.0 | 0.00 | 0.05 | 0.05 | 85 | 1007.6 |
| 20260506181541 | 64 | 146 | 1.0 | 10.0 | 0.00 | 0.05 | 0.05 | 85 | 1007.7 |
| 20260506180048 | 64 | 164 | 2.0 | 7.0 | 0.00 | 0.05 | 0.05 | 86 | 1007.9 |
| 20260506174550 | 64 | 190 | 3.0 | 16.0 | 0.00 | 0.05 | 0.05 | 86 | 1008.0 |
| 20260506173054 | 63 | 200 | 2.0 | 9.0 | 0.00 | 0.05 | 0.05 | 87 | 1008.1 |
| 20260506171547 | 63 | 208 | 3.0 | 11.0 | 0.01 | 0.05 | 0.05 | 87 | 1008.1 |
| 20260506170052 | 63 | 163 | 3.0 | 9.0 | 0.03 | 0.05 | 0.05 | 87 | 1008.3 |
| 20260506164549 | 63 | 193 | 3.0 | 11.0 | 0.04 | 0.05 | 0.05 | 86 | 1008.4 |
| 20260506163058 | 64 | 151 | 3.0 | 10.0 | 0.05 | 0.05 | 0.05 | 86 | 1008.5 |
| 20260506161549 | 64 | 132 | 1.0 | 8.0 | 0.04 | 0.04 | 0.04 | 87 | 1008.6 |
| 20260506160050 | 64 | 183 | 2.0 | 9.0 | 0.02 | 0.02 | 0.02 | 85 | 1009.1 |
| 20260506154555 | 64 | 182 | 1.0 | 7.0 | 0.01 | 0.01 | 0.01 | 83 | 1009.5 |
| 20260506153050 | 65 | 130 | 1.0 | 6.0 | 0.00 | 0.00 | 0.00 | 81 | 1009.5 |
| 20260506151544 | 66 | 169 | 2.0 | 8.0 | 0.00 | 0.00 | 0.00 | 78 | 1009.2 |
| 20260506150045 | 67 | 186 | 3.0 | 10.0 | 0.00 | 0.00 | 0.00 | 73 | 1009.3 |
| 20260506144551 | 68 | 0 | 2.0 | 13.0 | 0.00 | 0.00 | 0.00 | 71 | 1009.3 |
| 20260506143046 | 68 | 198 | 2.0 | 9.0 | 0.00 | 0.00 | 0.00 | 72 | 1009.3 |
| 20260506141550 | 68 | 176 | 3.0 | 13.0 | 0.00 | 0.00 | 0.00 | 68 | 1009.5 |
| 20260506140050 | 69 | 163 | 3.0 | 11.0 | 0.00 | 0.00 | 0.00 | 67 | 1009.2 |
| 20260506134557 | 69 | 244 | 3.0 | 9.0 | 0.00 | 0.00 | 0.00 | 70 | 1009.1 |
| 20260506133051 | 67 | 161 | 2.0 | 11.0 | 0.00 | 0.00 | 0.00 | 72 | 1009.1 |
| 20260506131547 | 67 | 177 | 4.0 | 13.0 | 0.00 | 0.00 | 0.00 | 72 | 1009.2 |
| 20260506130047 | 66 | 168 | 4.0 | 12.0 | 0.00 | 0.00 | 0.00 | 73 | 1009.5 |
| 20260506124547 | 67 | 172 | 3.0 | 9.0 | 0.00 | 0.00 | 0.00 | 73 | 1009.6 |
| 20260506123052 | 66 | 197 | 1.0 | 13.0 | 0.00 | 0.00 | 0.00 | 76 | 1009.6 |
| 20260506121557 | 66 | 159 | 4.0 | 17.0 | 0.00 | 0.00 | 0.00 | 76 | 1009.5 |
| 20260506120053 | 66 | 160 | 4.0 | 10.0 | 0.00 | 0.00 | 0.00 | 77 | 1009.3 |
| 20260506114545 | 64 | 152 | 2.0 | 9.0 | 0.00 | 0.00 | 0.00 | 81 | 1009.3 |
| 20260506113043 | 64 | 156 | 1.0 | 10.0 | 0.00 | 0.00 | 0.00 | 81 | 1009.3 |
| 20260506111545 | 63 | 184 | 3.0 | 8.0 | 0.00 | 0.00 | 0.00 | 81 | 1009.3 |
| 20260506110056 | 63 | 184 | 2.0 | 7.0 | 0.00 | 0.00 | 0.00 | 82 | 1009.2 |
| 20260506104548 | 63 | 157 | 2.0 | 9.0 | 0.00 | 0.00 | 0.00 | 83 | 1009.2 |
| 20260506103045 | 62 | 169 | 2.0 | 9.0 | 0.00 | 0.00 | 0.00 | 83 | 1009.2 |
| 20260506101542 | 62 | 180 | 3.0 | 11.0 | 0.00 | 0.00 | 0.00 | 83 | 1009.1 |
| 20260506100044 | 62 | 186 | 3.0 | 9.0 | 0.00 | 0.00 | 0.00 | 82 | 1009.0 |
| 20260506094548 | 63 | 202 | 2.0 | 9.0 | 0.00 | 0.00 | 0.00 | 82 | 1009.2 |
| 20260506093046 | 63 | 164 | 2.0 | 9.0 | 0.00 | 0.00 | 0.00 | 82 | 1009.1 |
| 20260506091546 | 63 | 197 | 2.0 | 9.0 | 0.00 | 0.00 | 0.00 | 81 | 1009.1 |
| 20260506090058 | 64 | 170 | 2.0 | 8.0 | 0.00 | 0.00 | 0.00 | 80 | 1009.2 |
| 20260506084556 | 64 | 150 | 1.0 | 8.0 | 0.00 | 0.00 | 0.00 | 80 | 1009.1 |
| 20260506083045 | 64 | 186 | 2.0 | 8.0 | 0.00 | 0.00 | 0.00 | 80 | 1009.1 |
| 20260506081544 | 64 | 153 | 1.0 | 9.0 | 0.00 | 0.00 | 0.00 | 79 | 1009.2 |
| 20260506073047 | 65 | 164 | 1.0 | 8.0 | 0.00 | 0.00 | 0.00 | 77 | 1009.3 |
| 20260506071548 | 66 | 175 | 2.0 | 7.0 | 0.00 | 0.00 | 0.00 | 76 | 1009.2 |
| 20260506061548 | 66 | 160 | 1.0 | 7.0 | 0.00 | 0.00 | 0.00 | 76 | 1009.5 |
| 20260506050112 | 66 | 155 | 0.0 | 6.0 | 0.00 | 0.00 | 0.00 | 74 | 1010.3 |
| 20260506044546 | 66 | 0 | 0.0 | 6.0 | 0.00 | 0.00 | 0.00 | 74 | 1010.3 |
| 20260506043046 | 66 | 148 | 1.0 | 7.0 | 0.00 | 0.00 | 0.00 | 73 | 1010.2 |
| 20260506041558 | 66 | 159 | 2.0 | 7.0 | 0.00 | 0.00 | 0.00 | 73 | 1010.4 |
| 20260506040045 | 66 | 161 | 1.0 | 7.0 | 0.00 | 0.00 | 0.00 | 72 | 1010.3 |
| 20260506034553 | 66 | 163 | 1.0 | 5.0 | 0.00 | 0.00 | 0.00 | 71 | 1010.2 |
| 20260506033050 | 67 | 132 | 0.0 | 8.0 | 0.00 | 0.00 | 0.00 | 70 | 1010.1 |
| 20260506031545 | 67 | 188 | 1.0 | 9.0 | 0.00 | 0.00 | 0.00 | 69 | 1010.1 |
| 20260506030044 | 67 | 164 | 1.0 | 6.0 | 0.00 | 0.00 | 0.00 | 68 | 1010.3 |
| 20260506024545 | 68 | 172 | 2.0 | 8.0 | 0.00 | 0.00 | 0.00 | 67 | 1010.4 |
| 20260506023058 | 68 | 157 | 3.0 | 6.0 | 0.00 | 0.00 | 0.00 | 65 | 1010.3 |
| 20260506021548 | 69 | 200 | 2.0 | 7.0 | 0.00 | 0.00 | 0.00 | 64 | 1010.1 |
| 20260506020052 | 70 | 171 | 1.0 | 6.0 | 0.00 | 0.00 | 0.00 | 61 | 1010.1 |
| 20260506014545 | 71 | 178 | 1.0 | 8.0 | 0.00 | 0.00 | 0.00 | 60 | 1010.0 |
| 20260506013052 | 71 | 188 | 3.0 | 8.0 | 0.00 | 0.00 | 0.00 | 58 | 1009.8 |
| 20260506011549 | 72 | 192 | 1.0 | 8.0 | 0.00 | 0.00 | 0.00 | 56 | 1009.7 |
| 20260506010049 | 72 | 188 | 1.0 | 6.0 | 0.00 | 0.00 | 0.00 | 55 | 1009.5 |
| 20260506004557 | 73 | 208 | 1.0 | 11.0 | 0.00 | 0.00 | 0.00 | 53 | 1009.3 |
| 20260506003044 | 73 | 178 | 2.0 | 10.0 | 0.00 | 0.00 | 0.00 | 53 | 1009.2 |
| 20260506001552 | 73 | 165 | 0.0 | 9.0 | 0.00 | 0.00 | 0.00 | 51 | 1009.2 |
| 20260506000047 | 74 | 167 | 3.0 | 10.0 | 0.00 | 0.00 | 0.00 | 50 | 1009.0 |
| 20260505234550 | 75 | 182 | 3.0 | 11.0 | 0.00 | 0.00 | 0.00 | 49 | 1008.9 |
| 20260505233048 | 75 | 155 | 4.0 | 11.0 | 0.00 | 0.00 | 0.00 | 49 | 1008.9 |
| 20260505231547 | 76 | 183 | 2.0 | 9.0 | 0.00 | 0.00 | 0.00 | 49 | 1008.8 |
| 20260505230110 | 77 | 231 | 2.0 | 13.0 | 0.00 | 0.00 | 0.00 | 47 | 1008.8 |
| 20260505224541 | 78 | 146 | 3.0 | 10.0 | 0.00 | 0.00 | 0.00 | 46 | 1008.6 |
| 20260505223048 | 79 | 193 | 3.0 | 14.0 | 0.00 | 0.00 | 0.00 | 46 | 1008.6 |
| 20260505221554 | 79 | 181 | 3.0 | 11.0 | 0.00 | 0.00 | 0.00 | 46 | 1008.8 |
| 20260505220053 | 81 | 180 | 3.0 | 12.0 | 0.00 | 0.00 | 0.00 | 41 | 1008.6 |
| 20260505214549 | 81 | 150 | 5.0 | 19.0 | 0.00 | 0.00 | 0.00 | 40 | 1008.2 |
| 20260505213052 | 82 | 208 | 3.0 | 15.0 | 0.00 | 0.00 | 0.00 | 39 | 1008.3 |
| 20260505211559 | 82 | 149 | 4.0 | 14.0 | 0.00 | 0.00 | 0.00 | 38 | 1008.2 |
| 20260505204552 | 84 | 219 | 4.0 | 14.0 | 0.00 | 0.00 | 0.00 | 36 | 1008.3 |
| 20260505203102 | 84 | 243 | 4.0 | 16.0 | 0.00 | 0.00 | 0.00 | 34 | 1008.2 |